Biggs Army Air Field / Ft. Bl, TX

6:34 AM MDT on September 24, 2017 (GMT -0600)
Biggs Army Air Field

Weather History for KBIF - February, 2014

Change the Weather History Date:

Thursday, February 13, 2014

  Actual Average (KELP) Record (KELP)
Temperature  
Mean Temperature 56 °F -  
Max Temperature 75 °F 60 °F 79 °F (1957)
Min Temperature 37 °F 36 °F 11 °F (1963)
Degree Days  
Heating Degree Days 9    
Growing Degree Days 6 (Base 50)    
Moisture  
Dew Point 16 °F    
Average Humidity 18    
Maximum Humidity 41    
Minimum Humidity 11    
Precipitation  
Precipitation 0.00 in - - ()
Sea Level Pressure  
Sea Level Pressure 29.98 in    
Wind  
Wind Speed 7 mph (WNW)    
Max Wind Speed 16 mph    
Max Gust Speed 24 mph    
Visibility 8 miles    
Events      
Averages and records for this station are not official NWS values.
T = Trace of Precipitation, MM = Missing Value Source: NWS Daily Summary

Daily Weather History Graph

Daily Weather History Graph

Search for Another Location

Airport or City:

Trip Planner

Search our weather history database for the weather conditions in past years. The results will help you decide how hot, cold, wet, or windy it might be!

Date:

Astronomy

Feb. 13, 2014 Rise Set
Actual Time 6:49 AM MST 5:50 PM MST
Civil Twilight 6:24 AM MST 6:15 PM MST
Nautical Twilight 5:55 AM MST 6:44 PM MST
Astronomical Twilight 5:27 AM MST 7:12 PM MST
Moon 5:01 PM MST (2/13) 5:43 AM MST (2/13)
Length of Visible Light 11h 51m
Length of Day
11h 01m
Waxing Gibbous, 99% of the Moon is Illuminated
Feb 13
Waxing Gibbous
Feb 14
Full
Feb 22
Last Quarter
Mar 1
New
Mar 8
First Quarter

Hourly Weather History & Observations

Time (MST) Temp. Windchill Dew Point Humidity Pressure Visibility Wind Dir Wind Speed Gust Speed Precip Events Conditions
12:56 AM 54.0 °F - 12.6 °F 19% 29.96 in 7.0 mi South 5.8 mph - N/A   Clear
1:56 AM 58.5 °F - 11.1 °F 15% 29.96 in 7.0 mi SSW 1.2 mph - N/A   Clear
2:56 AM 54.5 °F - 11.7 °F 18% 29.95 in 7.0 mi SSW 5.8 mph - N/A   Clear
3:56 AM 53.8 °F - 10.6 °F 18% 29.97 in 7.0 mi ENE 6.9 mph - N/A   Clear
4:56 AM 46.4 °F 43.5 °F 12.0 °F 25% 29.97 in 7.0 mi East 5.8 mph - N/A   Clear
5:56 AM 43.9 °F 42.3 °F 12.6 °F 28% 30.00 in 7.0 mi ESE 3.5 mph - N/A   Clear
6:56 AM 37.4 °F 33.8 °F 10.4 °F 33% 30.06 in 7.0 mi NNW 4.6 mph - N/A   Partly Cloudy
7:56 AM 41.0 °F - 10.4 °F 29% 30.07 in 7.0 mi NNE 2.3 mph - N/A   Partly Cloudy
8:56 AM 51.8 °F - 14.0 °F 22% 30.06 in 7.0 mi West 3.5 mph - N/A   Partly Cloudy
9:56 AM 62.6 °F - 15.8 °F 16% 30.04 in 7.0 mi NNW 6.9 mph - N/A   Partly Cloudy
10:56 AM 68.0 °F - 17.6 °F 15% 30.01 in 7.0 mi NW 12.7 mph - N/A   Partly Cloudy
11:56 AM 71.6 °F - 19.4 °F 14% 29.97 in 7.0 mi WNW 9.2 mph - N/A   Partly Cloudy
12:55 PM 71.6 °F - 46.4 °F 41% 29.94 in 7.0 mi WNW 11.5 mph 17.3 mph N/A   Clear
1:55 PM 71.6 °F - 17.6 °F 13% 29.90 in 7.0 mi NW 10.4 mph - N/A   Clear
2:56 PM 75.2 °F - 17.6 °F 11% 29.88 in 7.0 mi West 9.2 mph - N/A   Clear
3:59 PM 75.2 °F - 17.6 °F 11% 29.87 in 6.2 mi WNW 12.7 mph - N/A   Clear
4:59 PM 73.4 °F - 17.6 °F 12% 29.88 in 6.2 mi West 13.8 mph - N/A   Partly Cloudy
5:56 PM 69.4 °F - 16.5 °F 13% 29.90 in 12.0 mi WSW 5.8 mph - N/A   Clear
6:56 PM 66.7 °F - 15.8 °F 14% 30.00 in 12.0 mi West 6.9 mph - N/A   Clear
7:56 PM 66.4 °F - 16.2 °F 14% 30.03 in 12.0 mi WSW 6.9 mph - N/A   Clear
8:56 PM 63.3 °F - 15.6 °F 16% 30.04 in 12.0 mi West 4.6 mph - N/A   Clear
9:56 PM 69.3 °F - 15.6 °F 13% 30.03 in 12.0 mi West 16.1 mph 24.2 mph N/A   Clear
10:56 PM 68.4 °F - 15.8 °F 13% 30.02 in 12.0 mi West 15.0 mph 21.9 mph N/A   Clear
11:56 PM 67.1 °F - 15.8 °F 14% 30.02 in 12.0 mi WNW 11.5 mph 18.4 mph N/A   Clear